GW3796 Weather Reports


time (UTC)temp
F
wind
direction
speed
knots
gust
knots
rain 1hr
in
rain 24hr
in
rain mn
in
humidity
%
barometer
mb
20260506104023 56 149 1.7 4.3 0.00 0.00 0.00 73 1011.6
20260506103021 56 47 2.6 5.2 0.00 0.00 0.00 73 1011.6
20260506102021 56 154 1.7 3.5 0.00 0.00 0.00 73 1011.2
20260506101018 57 220 1.7 4.3 0.00 0.00 0.00 74 1011.2
20260506100032 57 242 1.7 2.6 0.00 0.00 0.00 74 1011.1
20260506095023 57 216 0.9 2.6 0.00 0.00 0.00 74 1010.9
20260506094041 57 47 1.7 3.5 0.00 0.00 0.00 74 1010.9
20260506093020 57 303 1.7 3.5 0.00 0.00 0.00 73 1011.1
20260506092040 57 265 1.7 4.3 0.00 0.00 0.00 73 1010.8
20260506091027 57 19 2.6 3.5 0.00 0.00 0.00 74 1010.8
20260506090024 57 249 1.7 2.6 0.00 0.00 0.00 74 1010.8
20260506085103 58 38 0.9 2.6 0.00 0.00 0.00 74 1010.7
20260506084025 58 268 1.7 3.5 0.00 0.00 0.00 74 1010.6
20260506083022 58 136 0.9 3.5 0.00 0.00 0.00 74 1010.4
20260506082019 58 233 0.9 2.6 0.00 0.00 0.00 74 1010.3
20260506081025 58 348 1.7 3.5 0.00 0.00 0.00 74 1010.3
20260506073021 58 33 0.9 3.5 0.00 0.00 0.00 74 1010.2
20260506072026 59 355 1.7 3.5 0.00 0.00 0.00 74 1009.9
20260506071024 59 357 1.7 3.5 0.00 0.00 0.00 74 1010.0
20260506062025 60 31 1.7 2.6 0.00 0.00 0.00 76 1010.0
20260506061034 60 101 1.7 3.5 0.00 0.00 0.00 76 1009.7
20260506051021 61 39 2.6 3.5 0.00 0.00 0.00 75 1010.0
20260506045023 61 14 2.6 4.3 0.00 0.00 0.00 75 1010.0
20260506044041 62 354 2.6 4.3 0.00 0.00 0.00 74 1009.8
20260506043025 62 39 2.6 5.2 0.00 0.00 0.00 74 1010.0
20260506042042 63 246 2.6 3.5 0.00 0.00 0.00 74 1009.9
20260506041023 63 187 1.7 3.5 0.00 0.00 0.00 74 1009.9
20260506040038 63 305 2.6 6.1 0.00 0.00 0.00 73 1009.6
20260506035022 64 192 2.6 5.2 0.00 0.00 0.00 73 1009.6
20260506034039 64 7 1.7 5.2 0.00 0.00 0.00 73 1009.4
20260506033023 65 128 2.6 4.3 0.00 0.00 0.00 71 1009.0
20260506032042 66 45 1.7 3.5 0.00 0.00 0.00 72 1008.8
20260506031039 66 50 1.7 4.3 0.00 0.00 0.00 72 1008.7
20260506030044 67 32 1.7 4.3 0.00 0.00 0.00 71 1008.5
20260506025021 67 184 1.7 3.5 0.00 0.00 0.00 70 1008.5
20260506024018 67 142 1.7 3.5 0.00 0.00 0.00 70 1008.1
20260506023022 68 313 1.7 3.5 0.00 0.00 0.00 69 1008.0
20260506022051 68 112 1.7 3.5 0.00 0.00 0.00 69 1007.9
20260506021049 68 61 1.7 4.3 0.00 0.00 0.00 69 1007.7
20260506020043 69 291 2.6 6.1 0.00 0.00 0.00 68 1007.6
20260506015025 69 336 0.9 3.5 0.00 0.00 0.00 69 1007.1
20260506014023 69 225 1.7 2.6 0.00 0.00 0.00 68 1006.8
20260506013020 70 233 1.7 3.5 0.00 0.00 0.00 68 1006.8
20260506012019 70 18 1.7 3.5 0.00 0.00 0.00 68 1006.7
20260506011028 71 7 1.7 3.5 0.00 0.00 0.00 67 1006.6
20260506010026 72 341 1.7 4.3 0.00 0.00 0.00 66 1006.3
20260506005019 72 131 1.7 5.2 0.00 0.00 0.00 67 1006.0
20260506004022 73 16 0.9 2.6 0.00 0.00 0.00 66 1006.1
20260506003020 73 36 1.7 3.5 0.00 0.00 0.00 65 1005.6
20260506002049 74 274 2.6 5.2 0.00 0.00 0.00 64 1005.8
20260506001026 75 296 2.6 5.2 0.00 0.00 0.00 63 1005.3
20260506000041 77 179 3.5 6.1 0.00 0.00 0.00 61 1005.5
20260505235025 78 213 2.6 5.2 0.00 0.00 0.00 59 1005.4
20260505234020 78 279 2.6 3.5 0.00 0.00 0.00 58 1005.4
20260505233058 79 181 2.6 7.0 0.00 0.00 0.00 58 1005.3
20260505232030 80 259 1.7 3.5 0.00 0.00 0.00 57 1005.3
20260505231105 81 285 2.6 4.3 0.00 0.00 0.00 55 1005.2
20260505230020 82 254 2.6 4.3 0.00 0.00 0.00 54 1005.2
20260505225021 83 186 2.6 3.5 0.00 0.00 0.00 54 1005.1
20260505224039 85 279 2.6 5.2 0.00 0.00 0.00 53 1004.9
20260505223028 87 269 2.6 3.5 0.00 0.00 0.00 52 1004.9
20260505222046 89 242 2.6 6.1 0.00 0.00 0.00 46 1004.7
20260505221024 89 238 1.7 3.5 0.00 0.00 0.00 45 1004.7
20260505220019 88 89 1.7 3.5 0.00 0.00 0.00 45 1004.4
20260505215020 90 236 2.6 4.3 0.00 0.00 0.00 42 1004.6
20260505214029 90 179 1.7 2.6 0.00 0.00 0.00 43 1004.8
20260505213027 89 223 2.6 5.2 0.00 0.00 0.00 44 1004.7
20260505212025 92 225 2.6 6.1 0.00 0.00 0.00 43 1004.7
20260505211023 92 211 3.5 6.1 0.00 0.00 0.00 43 1004.9
20260505210021 93 204 5.2 7.0 0.00 0.00 0.00 42 1004.9
20260505205018 93 222 3.5 7.0 0.00 0.00 0.00 43 1005.0
20260505204028 92 208 5.2 8.7 0.00 0.00 0.00 43 1005.1
20260505203026 92 188 4.3 6.1 0.00 0.00 0.00 45 1005.2
20260505202024 90 191 4.3 7.8 0.00 0.00 0.00 47 1005.2
20260505201022 91 251 3.5 6.1 0.00 0.00 0.00 47 1005.4
20260505200021 90 194 5.2 9.6 0.00 0.00 0.00 47 1005.5
20260505195030 91 194 5.2 9.6 0.00 0.00 0.00 46 1005.5
20260505194047 91 207 4.3 7.0 0.00 0.00 0.00 48 1005.5
20260505193026 90 202 5.2 7.8 0.00 0.00 0.00 50 1005.4
20260505192022 90 194 4.3 7.0 0.00 0.00 0.00 51 1005.5
20260505191020 89 194 5.2 7.8 0.00 0.00 0.00 52 1005.5
20260505190052 88 211 6.1 8.7 0.00 0.00 0.00 53 1005.4
20260505185029 87 172 5.2 10.4 0.00 0.00 0.00 54 1005.4
20260505184028 86 205 6.1 9.6 0.00 0.00 0.00 56 1005.4
20260505183023 87 197 3.5 6.1 0.00 0.00 0.00 57 1005.4
20260505182021 86 182 5.2 8.7 0.00 0.00 0.00 57 1005.5
20260505181019 86 183 4.3 8.7 0.00 0.00 0.00 59 1005.3
20260505180028 85 179 4.3 7.8 0.00 0.00 0.00 59 1005.5
20260505175030 84 171 7.0 11.3 0.00 0.00 0.00 60 1005.6
20260505174025 85 200 4.3 7.8 0.00 0.00 0.00 61 1005.6
20260505173022 85 176 6.1 8.7 0.00 0.00 0.00 60 1005.6
20260505172020 86 197 3.5 7.0 0.00 0.00 0.00 60 1005.7
20260505171028 84 163 5.2 11.3 0.00 0.00 0.00 61 1005.6
20260505170027 84 168 5.2 7.8 0.00 0.00 0.00 61 1005.7
20260505165027 84 157 3.5 7.0 0.00 0.00 0.00 62 1005.6
20260505164027 84 154 4.3 7.0 0.00 0.00 0.00 62 1005.6
20260505163021 82 173 5.2 8.7 0.00 0.00 0.00 64 1005.6
20260505162019 81 203 4.3 7.0 0.00 0.00 0.00 65 1005.5
20260505161027 82 193 4.3 7.0 0.00 0.00 0.00 64 1005.5
20260505153020 78 174 4.3 8.7 0.00 0.00 0.00 70 1005.1
20260505152028 78 184 4.3 7.8 0.00 0.00 0.00 70 1005.2
20260505151026 78 154 4.3 7.0 0.00 0.00 0.00 69 1005.2
20260505124020 70 193 3.5 6.1 0.00 0.00 0.00 83 1004.6
20260505123027 70 147 3.5 6.1 0.00 0.00 0.00 84 1004.5
20260505122025 70 166 1.7 4.3 0.00 0.00 0.00 84 1004.3
20260505121022 69 177 2.6 4.3 0.00 0.00 0.00 85 1004.2
20260505120021 69 176 2.6 5.2 0.00 0.00 0.00 85 1004.1
20260505115021 69 130 2.6 6.1 0.00 0.00 0.00 85 1004.2
20260505114018 69 148 2.6 4.3 0.00 0.00 0.00 85 1004.1
20260505113026 69 164 2.6 5.2 0.00 0.00 0.00 85 1004.0
20260505112024 69 144 2.6 5.2 0.00 0.00 0.00 85 1004.0
20260505111041 69 117 3.5 7.8 0.00 0.00 0.00 85 1004.1